TimeMST,TemperatureF,Dew PointF,Humidity,Sea Level PressureIn,VisibilityMPH,Wind Direction,Wind SpeedMPH,Gust SpeedMPH,PrecipitationIn,Events,Conditions,WindDirDegrees,DateUTC
12:53 AM,26.1,23.0,88,30.11,10.0,Calm,Calm,-,N/A,,Clear,0,2013-01-25 07:53:00
1:53 AM,27.0,23.0,85,30.13,10.0,North,8.1,-,N/A,,Clear,10,2013-01-25 08:53:00
2:53 AM,23.0,18.0,81,30.14,10.0,Calm,Calm,-,N/A,,Clear,0,2013-01-25 09:53:00
3:53 AM,24.1,19.9,84,30.13,10.0,Calm,Calm,-,N/A,,Clear,0,2013-01-25 10:53:00
4:53 AM,19.9,17.1,89,30.14,10.0,Calm,Calm,-,N/A,,Clear,0,2013-01-25 11:53:00
5:53 AM,25.0,21.0,85,30.13,10.0,SSW,9.2,-,N/A,,Clear,210,2013-01-25 12:53:00
6:53 AM,27.0,21.0,78,30.16,10.0,Variable,4.6,-,N/A,,Clear,0,2013-01-25 13:53:00
7:53 AM,27.0,21.0,78,30.19,10.0,WNW,6.9,-,N/A,,Clear,300,2013-01-25 14:53:00
8:53 AM,37.9,27.0,65,30.16,10.0,WNW,6.9,-,N/A,,Clear,300,2013-01-25 15:53:00
9:53 AM,45.0,25.0,46,30.15,10.0,WNW,15.0,-,N/A,,Clear,300,2013-01-25 16:53:00
10:53 AM,48.9,24.1,38,30.13,10.0,WNW,11.5,-,N/A,,Clear,300,2013-01-25 17:53:00
11:53 AM,53.1,-9999,N/A,30.08,10.0,West,16.1,25.3,0.01,,Clear,280,2013-01-25 18:53:00
12:53 PM,54.0,23.0,30,30.06,10.0,WSW,20.7,25.3,N/A,,Clear,250,2013-01-25 19:53:00
1:53 PM,55.0,23.0,29,30.04,10.0,West,19.6,-,N/A,,Clear,270,2013-01-25 20:53:00
2:53 PM,54.0,23.0,30,30.04,10.0,West,17.3,24.2,N/A,,Clear,260,2013-01-25 21:53:00
3:53 PM,52.0,23.0,32,30.06,10.0,West,18.4,-,N/A,,Clear,260,2013-01-25 22:53:00
4:53 PM,46.0,24.1,42,30.11,10.0,West,13.8,-,N/A,,Clear,280,2013-01-25 23:53:00
5:53 PM,44.1,25.0,47,30.10,10.0,West,15.0,-,N/A,,Clear,270,2013-01-26 00:53:00
6:53 PM,44.1,25.0,47,30.09,10.0,West,18.4,26.5,N/A,,Clear,260,2013-01-26 01:53:00
7:53 PM,42.1,24.1,49,30.09,10.0,WSW,10.4,-,N/A,,Clear,240,2013-01-26 02:53:00
8:53 PM,41.0,24.1,51,30.05,10.0,West,12.7,-,N/A,,Clear,270,2013-01-26 03:53:00
9:53 PM,35.1,21.9,59,30.04,10.0,Variable,6.9,-,N/A,,Clear,0,2013-01-26 04:53:00
10:53 PM,37.9,25.0,60,30.00,10.0,West,11.5,-,N/A,,Clear,280,2013-01-26 05:53:00
11:53 PM,37.9,25.0,60,29.97,10.0,West,4.6,-,N/A,,Clear,280,2013-01-26 06:53:00